This is the latest recevied weather packets stored in our database for station/object KA1AL. If no packets are shown the sender has not sent any weather packets the latest 10 day(s).
| Time | Temp. | Humidity | Pressure | Rain* | Wind** | Luminosity | Snow |
|---|---|---|---|---|---|---|---|
| 1777524070 | 5° C | 99% | 1012.6 hPa | 1.27 mm | - | 0 W/m² | - |
| 1777523767 | 5° C | 99% | 1012.6 hPa | 1.27 mm | - | 0 W/m² | - |
| 1777523464 | 5° C | 99% | 1012.6 hPa | 1.78 mm | - | 0 W/m² | - |
| 1777523160 | 5° C | 99% | 1012.7 hPa | 1.78 mm | - | 0 W/m² | - |
| 1777522856 | 5° C | 99% | 1013 hPa | 1.27 mm | - | 0 W/m² | - |
| 1777522553 | 5° C | 99% | 1012.9 hPa | 1.27 mm | - | 0 W/m² | - |
| 1777522250 | 5° C | 99% | 1012.9 hPa | 0 mm | - | 0 W/m² | - |
| 1777521947 | 5° C | 99% | 1012.8 hPa | 1.78 mm | - | 0 W/m² | - |
| 1777521644 | 5° C | 99% | 1012.9 hPa | 1.78 mm | - | 0 W/m² | - |
| 1777521341 | 5° C | 99% | 1013 hPa | 1.78 mm | - | 0 W/m² | - |
| 1777521038 | 5° C | 99% | 1013 hPa | 1.27 mm | - | 0 W/m² | - |
| 1777520735 | 5° C | 99% | 1012.8 hPa | 1.27 mm | - | 0 W/m² | - |
| 1777520432 | 5° C | 99% | 1013.3 hPa | 1.78 mm | - | 0 W/m² | - |
| 1777520129 | 5° C | 99% | 1013.2 hPa | 1.78 mm | - | 0 W/m² | - |
| 1777519826 | 5° C | 99% | 1013.2 hPa | 1.78 mm | - | 0 W/m² | - |
| 1777519524 | 5° C | 99% | 1013.2 hPa | 1.78 mm | - | 0 W/m² | - |
| 1777519220 | 5° C | 99% | 1013.4 hPa | 1.27 mm | - | 0 W/m² | - |
| 1777518915 | 5° C | 99% | 1013.4 hPa | 1.27 mm | - | 0 W/m² | - |
| 1777518612 | 5.56° C | 99% | 1013.5 hPa | 1.78 mm | - | 0 W/m² | - |
| 1777518309 | 5.56° C | 99% | 1013.5 hPa | 1.78 mm | - | 0 W/m² | - |
| 1777518004 | 5.56° C | 99% | 1013.6 hPa | 0 mm | - | 0 W/m² | - |
| 1777517701 | 5.56° C | 99% | 1013.5 hPa | 1.27 mm | - | 0 W/m² | - |
| 1777517397 | 5.56° C | 99% | 1013.6 hPa | 1.27 mm | - | 0 W/m² | - |
| 1777517091 | 5.56° C | 99% | 1013.6 hPa | 1.78 mm | - | 0 W/m² | - |
| 1777516788 | 5.56° C | 99% | 1013.7 hPa | 3.05 mm | - | 0 W/m² | - |
* Rain latest hour (hover to see other rain measurements)
** Current wind speed in m/s (hover to see current wind gust speed)